SB KEPS @ AMSAT $ORB14289.O Orbital Elements 14289.OSCAR HR AMSAT ORBITAL ELEMENTS FOR OSCAR SATELLITES FROM WA5QGD FORT WORTH,TX October 16, 2014 BID: ORB14289.O TO ALL RADIO AMATEURS BT Satellite: AO-07 Catalog number: 07530 Epoch time: 14288.49232344 Element set: 96 Inclination: 101.4877 deg RA of node: 266.4252 deg Eccentricity: 0.0012349 Arg of perigee: 060.9096 deg Mean anomaly: 054.1708 deg Mean motion: 12.53607964 rev/day Decay rate: -2.4e-07 rev/day^2 Epoch rev: 82659 Checksum: 311 Satellite: FO-29 Catalog number: 24278 Epoch time: 14288.97673712 Element set: 496 Inclination: 098.5157 deg RA of node: 286.1691 deg Eccentricity: 0.0350036 Arg of perigee: 344.4023 deg Mean anomaly: 065.0329 deg Mean motion: 13.53032290 rev/day Decay rate: -1.4e-07 rev/day^2 Epoch rev: 89700 Checksum: 317 Satellite: SO-33 Catalog number: 25509 Epoch time: 14289.15997803 Element set: 862 Inclination: 031.4306 deg RA of node: 194.8931 deg Eccentricity: 0.0348887 Arg of perigee: 094.3605 deg Mean anomaly: 022.4352 deg Mean motion: 14.29685421 rev/day Decay rate: 4.62e-06 rev/day^2 Epoch rev: 83447 Checksum: 334 Satellite: RS-22 Catalog number: 27939 Epoch time: 14289.45241863 Element set: 957 Inclination: 097.8209 deg RA of node: 097.6606 deg Eccentricity: 0.0014459 Arg of perigee: 084.5903 deg Mean anomaly: 328.2469 deg Mean motion: 14.65411135 rev/day Decay rate: 3.34e-06 rev/day^2 Epoch rev: 59048 Checksum: 344 Satellite: HO-68 Catalog number: 36122 Epoch time: 14289.19708948 Element set: 37 Inclination: 100.2345 deg RA of node: 337.3110 deg Eccentricity: 0.0006940 Arg of perigee: 323.1827 deg Mean anomaly: 079.2795 deg Mean motion: 13.16318569 rev/day Decay rate: 2.9e-07 rev/day^2 Epoch rev: 23235 Checksum: 305 Satellite: AO-73 Catalog number: 39444 Epoch time: 14288.75733662 Element set: 284 Inclination: 097.7640 deg RA of node: 355.2642 deg Eccentricity: 0.0061093 Arg of perigee: 210.4614 deg Mean anomaly: 149.3044 deg Mean motion: 14.78759543 rev/day Decay rate: 1.260e-05 rev/day^2 Epoch rev: 4728 Checksum: 324 Satellite: EO-79 Catalog number: 40025 Epoch time: 14289.67654724 Element set: 349 Inclination: 097.9696 deg RA of node: 184.5148 deg Eccentricity: 0.0011842 Arg of perigee: 264.6704 deg Mean anomaly: 095.3115 deg Mean motion: 14.85635478 rev/day Decay rate: 2.696e-05 rev/day^2 Epoch rev: 1762 Checksum: 353 /EX SB KEPS @ AMSAT $ORB14289.D Orbital Elements 14289.MICROS HR AMSAT ORBITAL ELEMENTS FOR THE MICROSATS FROM WA5QGD FORT WORTH,TX October 16, 2014 BID: ORB14289.D TO ALL RADIO AMATEURS BT Satellite: UO-11 Catalog number: 14781 Epoch time: 14289.38632641 Element set: 637 Inclination: 097.8384 deg RA of node: 347.0677 deg Eccentricity: 0.0009876 Arg of perigee: 141.3666 deg Mean anomaly: 218.8256 deg Mean motion: 14.81807256 rev/day Decay rate: 2.52e-06 rev/day^2 Epoch rev: 64591 Checksum: 344 Satellite: AO-16 Catalog number: 20439 Epoch time: 14289.44821814 Element set: 150 Inclination: 098.5161 deg RA of node: 224.5461 deg Eccentricity: 0.0011536 Arg of perigee: 155.9212 deg Mean anomaly: 319.7958 deg Mean motion: 14.32404602 rev/day Decay rate: 5.7e-07 rev/day^2 Epoch rev: 29184 Checksum: 297 Satellite: LO-19 Catalog number: 20442 Epoch time: 14289.39479134 Element set: 85 Inclination: 098.4871 deg RA of node: 224.7836 deg Eccentricity: 0.0012675 Arg of perigee: 145.7706 deg Mean anomaly: 214.4297 deg Mean motion: 14.32603635 rev/day Decay rate: 4.3e-07 rev/day^2 Epoch rev: 29203 Checksum: 315 Satellite: AO-27 Catalog number: 22825 Epoch time: 14289.48148788 Element set: 797 Inclination: 098.6755 deg RA of node: 234.9853 deg Eccentricity: 0.0007356 Arg of perigee: 306.3142 deg Mean anomaly: 167.3809 deg Mean motion: 14.29761467 rev/day Decay rate: 4.3e-07 rev/day^2 Epoch rev: 9811 Checksum: 355 Satellite: IO-26 Catalog number: 22826 Epoch time: 14288.79941277 Element set: 554 Inclination: 098.6695 deg RA of node: 234.5068 deg Eccentricity: 0.0007847 Arg of perigee: 299.6713 deg Mean anomaly: 060.3688 deg Mean motion: 14.30065860 rev/day Decay rate: 4.5e-07 rev/day^2 Epoch rev: 9815 Checksum: 352 Satellite: GO-32 Catalog number: 25397 Epoch time: 14289.43201380 Element set: 476 Inclination: 098.4850 deg RA of node: 242.9865 deg Eccentricity: 0.0000768 Arg of perigee: 023.1972 deg Mean anomaly: 129.5672 deg Mean motion: 14.23470827 rev/day Decay rate: 1.4e-07 rev/day^2 Epoch rev: 84511 Checksum: 313 Satellite: NO-44 Catalog number: 26931 Epoch time: 14288.47150689 Element set: 729 Inclination: 067.0513 deg RA of node: 088.2694 deg Eccentricity: 0.0007448 Arg of perigee: 274.3066 deg Mean anomaly: 085.7184 deg Mean motion: 14.30165998 rev/day Decay rate: 7.0e-07 rev/day^2 Epoch rev: 68080 Checksum: 339 Satellite: SO-50 Catalog number: 27607 Epoch time: 14289.60815192 Element set: 546 Inclination: 064.5564 deg RA of node: 222.1576 deg Eccentricity: 0.0061792 Arg of perigee: 338.6354 deg Mean anomaly: 021.2663 deg Mean motion: 14.74011464 rev/day Decay rate: 1.702e-05 rev/day^2 Epoch rev: 63537 Checksum: 305 Satellite: CO-55 Catalog number: 27844 Epoch time: 14288.98262405 Element set: 48 Inclination: 098.6988 deg RA of node: 296.0218 deg Eccentricity: 0.0008574 Arg of perigee: 287.0373 deg Mean anomaly: 125.2027 deg Mean motion: 14.21582414 rev/day Decay rate: 1.45e-06 rev/day^2 Epoch rev: 58574 Checksum: 336 Satellite: CO-57 Catalog number: 27848 Epoch time: 14288.53479047 Element set: 991 Inclination: 098.7084 deg RA of node: 295.3573 deg Eccentricity: 0.0008509 Arg of perigee: 296.3370 deg Mean anomaly: 183.3683 deg Mean motion: 14.21259714 rev/day Decay rate: 1.40e-06 rev/day^2 Epoch rev: 58559 Checksum: 359 Satellite: AO-51 Catalog number: 28375 Epoch time: 14289.06068979 Element set: 969 Inclination: 098.2633 deg RA of node: 231.9256 deg Eccentricity: 0.0082540 Arg of perigee: 347.9312 deg Mean anomaly: 011.9899 deg Mean motion: 14.41457750 rev/day Decay rate: 4.70e-06 rev/day^2 Epoch rev: 54131 Checksum: 341 Satellite: CP3 Catalog number: 31129 Epoch time: 14288.93968675 Element set: 875 Inclination: 097.9483 deg RA of node: 260.9057 deg Eccentricity: 0.0097787 Arg of perigee: 355.7990 deg Mean anomaly: 068.7469 deg Mean motion: 14.54970387 rev/day Decay rate: 8.19e-06 rev/day^2 Epoch rev: 39759 Checksum: 408 Satellite: CO-65 Catalog number: 32785 Epoch time: 14288.75316625 Element set: 91 Inclination: 097.6859 deg RA of node: 336.0174 deg Eccentricity: 0.0014734 Arg of perigee: 147.9657 deg Mean anomaly: 344.8219 deg Mean motion: 14.85674499 rev/day Decay rate: 1.204e-05 rev/day^2 Epoch rev: 34992 Checksum: 361 Satellite: PRISM Catalog number: 33493 Epoch time: 14289.66957843 Element set: 401 Inclination: 098.2552 deg RA of node: 110.6026 deg Eccentricity: 0.0018258 Arg of perigee: 050.0122 deg Mean anomaly: 077.2826 deg Mean motion: 14.90341694 rev/day Decay rate: 3.077e-05 rev/day^2 Epoch rev: 31026 Checksum: 290 Satellite: SOHLA-1 Catalog number: 33496 Epoch time: 14288.81207630 Element set: 490 Inclination: 098.1844 deg RA of node: 050.1459 deg Eccentricity: 0.0006001 Arg of perigee: 208.7525 deg Mean anomaly: 269.6394 deg Mean motion: 14.70943230 rev/day Decay rate: 1.82e-06 rev/day^2 Epoch rev: 30724 Checksum: 292 Satellite: TISAT-1 Catalog number: 36799 Epoch time: 14289.50811522 Element set: 647 Inclination: 098.0184 deg RA of node: 022.4559 deg Eccentricity: 0.0012452 Arg of perigee: 286.3738 deg Mean anomaly: 136.7799 deg Mean motion: 14.86310268 rev/day Decay rate: 1.398e-05 rev/day^2 Epoch rev: 23073 Checksum: 334 Satellite: STUDSAT Catalog number: 36801 Epoch time: 14287.98234865 Element set: 908 Inclination: 098.0394 deg RA of node: 031.4925 deg Eccentricity: 0.0006925 Arg of perigee: 250.4164 deg Mean anomaly: 161.9577 deg Mean motion: 14.99495404 rev/day Decay rate: 1.3041e-04 rev/day^2 Epoch rev: 23106 Checksum: 316 Satellite: ALMASAT-1 Catalog number: 38078 Epoch time: 14288.23073036 Element set: 183 Inclination: 069.4662 deg RA of node: 128.3933 deg Eccentricity: 0.0571792 Arg of perigee: 231.9849 deg Mean anomaly: 252.5947 deg Mean motion: 14.56235746 rev/day Decay rate: 2.7660e-04 rev/day^2 Epoch rev: 13907 Checksum: 341 Satellite: XATCOBEO Catalog number: 38082 Epoch time: 14243.34478676 Element set: 563 Inclination: 069.3815 deg RA of node: 097.0364 deg Eccentricity: 0.0033293 Arg of perigee: 225.1799 deg Mean anomaly: 135.4582 deg Mean motion: 16.41261006 rev/day Decay rate: 1.3583328e-01 rev/day^2 Epoch rev: 13623 Checksum: 317 Satellite: CUBEBUG-1 Catalog number: 39153 Epoch time: 14289.21366193 Element set: 571 Inclination: 098.0365 deg RA of node: 009.2479 deg Eccentricity: 0.0016790 Arg of perigee: 323.4423 deg Mean anomaly: 036.5640 deg Mean motion: 14.78062719 rev/day Decay rate: 2.174e-05 rev/day^2 Epoch rev: 7942 Checksum: 310 Satellite: ESTCUBE-1 Catalog number: 39161 Epoch time: 14289.44265428 Element set: 576 Inclination: 098.0923 deg RA of node: 009.4217 deg Eccentricity: 0.0009823 Arg of perigee: 018.2691 deg Mean anomaly: 341.8866 deg Mean motion: 14.70274529 rev/day Decay rate: 4.34e-06 rev/day^2 Epoch rev: 7740 Checksum: 317 Satellite: DUCHIFAT-1 Catalog number: 40021 Epoch time: 14289.66441241 Element set: 354 Inclination: 097.9677 deg RA of node: 184.5534 deg Eccentricity: 0.0012030 Arg of perigee: 263.2087 deg Mean anomaly: 096.7761 deg Mean motion: 14.85884604 rev/day Decay rate: 3.983e-05 rev/day^2 Epoch rev: 1761 Checksum: 312 Satellite: NANOSATCBR1 Catalog number: 40024 Epoch time: 14289.67324704 Element set: 346 Inclination: 097.9648 deg RA of node: 184.5164 deg Eccentricity: 0.0011293 Arg of perigee: 260.6879 deg Mean anomaly: 099.3059 deg Mean motion: 14.85734455 rev/day Decay rate: 3.491e-05 rev/day^2 Epoch rev: 1761 Checksum: 328 Satellite: DTUSAT-2 Catalog number: 40030 Epoch time: 14289.63876396 Element set: 342 Inclination: 097.9651 deg RA of node: 184.3910 deg Eccentricity: 0.0010872 Arg of perigee: 251.4738 deg Mean anomaly: 108.5304 deg Mean motion: 14.85260081 rev/day Decay rate: 2.933e-05 rev/day^2 Epoch rev: 1761 Checksum: 298 Satellite: ANTELSAT Catalog number: 40034 Epoch time: 14289.65430801 Element set: 351 Inclination: 097.9655 deg RA of node: 181.8512 deg Eccentricity: 0.0060641 Arg of perigee: 178.1369 deg Mean anomaly: 182.0071 deg Mean motion: 14.71522200 rev/day Decay rate: 2.026e-05 rev/day^2 Epoch rev: 1746 Checksum: 269 /EX SB KEPS @ AMSAT $ORB14289.W Orbital Elements 14289.WEATHER HR AMSAT ORBITAL ELEMENTS FOR WEATHER SATELLITES FROM WA5QGD FORT WORTH,TX October 16, 2014 BID: ORB14289.W TO ALL RADIO AMATEURS BT Satellite: MET-2/21 Catalog number: 22782 Epoch time: 14289.05615427 Element set: 200 Inclination: 082.5482 deg RA of node: 077.3969 deg Eccentricity: 0.0021009 Arg of perigee: 286.1193 deg Mean anomaly: 211.3999 deg Mean motion: 13.83746466 rev/day Decay rate: 5.8e-07 rev/day^2 Epoch rev: 6683 Checksum: 323 Satellite: OKEAN-4 Catalog number: 23317 Epoch time: 14288.78819679 Element set: 682 Inclination: 082.5367 deg RA of node: 314.8450 deg Eccentricity: 0.0021647 Arg of perigee: 063.3869 deg Mean anomaly: 058.8104 deg Mean motion: 14.85794385 rev/day Decay rate: 4.17e-06 rev/day^2 Epoch rev: 8101 Checksum: 337 Satellite: NOAA-14 Catalog number: 23455 Epoch time: 14289.35447770 Element set: 944 Inclination: 098.7725 deg RA of node: 010.6029 deg Eccentricity: 0.0010184 Arg of perigee: 059.6496 deg Mean anomaly: 341.8890 deg Mean motion: 14.13991621 rev/day Decay rate: 6.3e-07 rev/day^2 Epoch rev: 2107 Checksum: 311 Satellite: NOAA-15 Catalog number: 25338 Epoch time: 14289.48784128 Element set: 382 Inclination: 098.7610 deg RA of node: 283.1643 deg Eccentricity: 0.0011346 Arg of perigee: 151.4960 deg Mean anomaly: 320.3296 deg Mean motion: 14.25484864 rev/day Decay rate: 7.7e-07 rev/day^2 Epoch rev: 85412 Checksum: 321 Satellite: RESURS Catalog number: 25394 Epoch time: 14288.49286831 Element set: 785 Inclination: 098.4295 deg RA of node: 247.8899 deg Eccentricity: 0.0000286 Arg of perigee: 230.3281 deg Mean anomaly: 238.1346 deg Mean motion: 14.24405198 rev/day Decay rate: -6.0e-08 rev/day^2 Epoch rev: 84544 Checksum: 334 Satellite: FENGYUN1 Catalog number: 25730 Epoch time: 14288.79613488 Element set: 274 Inclination: 098.9207 deg RA of node: 249.2108 deg Eccentricity: 0.0023027 Arg of perigee: 124.3833 deg Mean anomaly: 297.5983 deg Mean motion: 14.12242884 rev/day Decay rate: 1.448e-05 rev/day^2 Epoch rev: 79454 Checksum: 332 Satellite: OKEAN-0 Catalog number: 25860 Epoch time: 14288.95990032 Element set: 391 Inclination: 098.0592 deg RA of node: 252.2206 deg Eccentricity: 0.0001778 Arg of perigee: 085.7674 deg Mean anomaly: 315.6252 deg Mean motion: 14.75460882 rev/day Decay rate: 1.132e-05 rev/day^2 Epoch rev: 81996 Checksum: 324 Satellite: NOAA-16 Catalog number: 26536 Epoch time: 14289.30636283 Element set: 880 Inclination: 098.9772 deg RA of node: 350.1130 deg Eccentricity: 0.0010526 Arg of perigee: 196.6266 deg Mean anomaly: 163.4562 deg Mean motion: 14.13044019 rev/day Decay rate: 2.4e-07 rev/day^2 Epoch rev: 72521 Checksum: 293 Satellite: NOAA-17 Catalog number: 27453 Epoch time: 14289.47534039 Element set: 770 Inclination: 098.3216 deg RA of node: 282.8461 deg Eccentricity: 0.0012108 Arg of perigee: 172.6843 deg Mean anomaly: 187.4516 deg Mean motion: 14.24792353 rev/day Decay rate: 7.9e-07 rev/day^2 Epoch rev: 63995 Checksum: 336 Satellite: NOAA-18 Catalog number: 28654 Epoch time: 14289.49044300 Element set: 294 Inclination: 099.1620 deg RA of node: 271.5075 deg Eccentricity: 0.0013312 Arg of perigee: 284.6205 deg Mean anomaly: 183.9915 deg Mean motion: 14.12079141 rev/day Decay rate: -8.0e-08 rev/day^2 Epoch rev: 48468 Checksum: 305 Satellite: NOAA-19 Catalog number: 33591 Epoch time: 14289.47476953 Element set: 426 Inclination: 098.9575 deg RA of node: 234.2150 deg Eccentricity: 0.0014788 Arg of perigee: 134.7700 deg Mean anomaly: 332.8178 deg Mean motion: 14.11780900 rev/day Decay rate: 1.79e-06 rev/day^2 Epoch rev: 29310 Checksum: 327 /EX SB KEPS @ AMSAT $ORB14289.M Orbital Elements 14289.MISC HR AMSAT ORBITAL ELEMENTS FOR MANNED AND MISCELLANEOUS SATELLITES FROM WA5QGD FORT WORTH,TX October 16, 2014 BID: ORB14289.M TO ALL RADIO AMATEURS BT Satellite: HUBBLE Catalog number: 20580 Epoch time: 14289.50405269 Element set: 136 Inclination: 028.4711 deg RA of node: 319.3845 deg Eccentricity: 0.0003259 Arg of perigee: 139.4638 deg Mean anomaly: 351.5672 deg Mean motion: 15.05934665 rev/day Decay rate: 1.526e-05 rev/day^2 Epoch rev: 14302 Checksum: 294 Satellite: ISS Catalog number: 25544 Epoch time: 14289.66585840 Element set: 252 Inclination: 051.6472 deg RA of node: 217.4320 deg Eccentricity: 0.0002522 Arg of perigee: 263.0361 deg Mean anomaly: 169.3300 deg Mean motion: 15.50503666 rev/day Decay rate: 1.3546e-04 rev/day^2 Epoch rev: 91017 Checksum: 274 Satellite: CO-58 Catalog number: 28895 Epoch time: 14288.53051097 Element set: 899 Inclination: 097.8261 deg RA of node: 124.1216 deg Eccentricity: 0.0016981 Arg of perigee: 355.2444 deg Mean anomaly: 004.8594 deg Mean motion: 14.62095144 rev/day Decay rate: 4.03e-06 rev/day^2 Epoch rev: 47783 Checksum: 338 Satellite: FALCON Catalog number: 30776 Epoch time: 14288.74742764 Element set: 982 Inclination: 035.4280 deg RA of node: 086.5197 deg Eccentricity: 0.0002482 Arg of perigee: 296.5608 deg Mean anomaly: 150.3082 deg Mean motion: 15.18031361 rev/day Decay rate: 6.069e-05 rev/day^2 Epoch rev: 41905 Checksum: 312 Satellite: MAST Catalog number: 31126 Epoch time: 14288.80581317 Element set: 179 Inclination: 097.9289 deg RA of node: 263.5074 deg Eccentricity: 0.0091042 Arg of perigee: 338.9604 deg Mean anomaly: 135.2831 deg Mean motion: 14.55477692 rev/day Decay rate: 3.98e-06 rev/day^2 Epoch rev: 39793 Checksum: 339 Satellite: CAPE1 Catalog number: 31130 Epoch time: 14288.80188793 Element set: 185 Inclination: 097.9501 deg RA of node: 260.3119 deg Eccentricity: 0.0098271 Arg of perigee: 357.7085 deg Mean anomaly: 002.3650 deg Mean motion: 14.54701732 rev/day Decay rate: 5.67e-06 rev/day^2 Epoch rev: 39734 Checksum: 308 Satellite: COMPASS Catalog number: 32787 Epoch time: 14289.12646803 Element set: 74 Inclination: 097.6881 deg RA of node: 339.1469 deg Eccentricity: 0.0014764 Arg of perigee: 138.4097 deg Mean anomaly: 221.8246 deg Mean motion: 14.88565642 rev/day Decay rate: 3.973e-05 rev/day^2 Epoch rev: 35017 Checksum: 340 Satellite: AAUSAT2 Catalog number: 32788 Epoch time: 14289.13800224 Element set: 62 Inclination: 097.6893 deg RA of node: 340.2972 deg Eccentricity: 0.0014321 Arg of perigee: 136.2085 deg Mean anomaly: 224.0271 deg Mean motion: 14.89345481 rev/day Decay rate: 4.760e-05 rev/day^2 Epoch rev: 35024 Checksum: 291 Satellite: DO-64 Catalog number: 32789 Epoch time: 14289.17711211 Element set: 106 Inclination: 097.7082 deg RA of node: 348.0548 deg Eccentricity: 0.0013099 Arg of perigee: 121.2550 deg Mean anomaly: 303.4174 deg Mean motion: 14.94815033 rev/day Decay rate: 9.233e-05 rev/day^2 Epoch rev: 35056 Checksum: 299 Satellite: CO-66 Catalog number: 32791 Epoch time: 14289.12896866 Element set: 56 Inclination: 097.6878 deg RA of node: 337.6527 deg Eccentricity: 0.0015495 Arg of perigee: 142.3755 deg Mean anomaly: 217.8549 deg Mean motion: 14.87089148 rev/day Decay rate: 3.610e-05 rev/day^2 Epoch rev: 35002 Checksum: 359 Satellite: RS-30 Catalog number: 32953 Epoch time: 14289.14270969 Element set: 389 Inclination: 082.4991 deg RA of node: 126.0139 deg Eccentricity: 0.0018231 Arg of perigee: 252.1417 deg Mean anomaly: 203.1758 deg Mean motion: 12.43051478 rev/day Decay rate: 4.3e-07 rev/day^2 Epoch rev: 29028 Checksum: 299 Satellite: METEOR-M Catalog number: 35865 Epoch time: 14289.33885654 Element set: 992 Inclination: 098.5369 deg RA of node: 332.9981 deg Eccentricity: 0.0003617 Arg of perigee: 106.1417 deg Mean anomaly: 314.8305 deg Mean motion: 14.21937653 rev/day Decay rate: 3.5e-07 rev/day^2 Epoch rev: 26355 Checksum: 330 Satellite: RS-38 Catalog number: 35869 Epoch time: 14289.20511226 Element set: 900 Inclination: 098.5288 deg RA of node: 332.6115 deg Eccentricity: 0.0005817 Arg of perigee: 104.6321 deg Mean anomaly: 296.4902 deg Mean motion: 14.22233556 rev/day Decay rate: 4.0e-08 rev/day^2 Epoch rev: 26357 Checksum: 297 Satellite: JUGNU Catalog number: 37839 Epoch time: 14289.20523337 Element set: 716 Inclination: 019.9611 deg RA of node: 241.4634 deg Eccentricity: 0.0018712 Arg of perigee: 237.7657 deg Mean anomaly: 214.5505 deg Mean motion: 14.12350387 rev/day Decay rate: 5.09e-06 rev/day^2 Epoch rev: 15568 Checksum: 304 Satellite: SRMSAT Catalog number: 37841 Epoch time: 14289.15240309 Element set: 718 Inclination: 019.9719 deg RA of node: 263.5367 deg Eccentricity: 0.0011748 Arg of perigee: 171.3273 deg Mean anomaly: 251.4063 deg Mean motion: 14.10385189 rev/day Decay rate: 4.65e-06 rev/day^2 Epoch rev: 15545 Checksum: 305 Satellite: RAX-2 Catalog number: 37853 Epoch time: 14288.47291818 Element set: 936 Inclination: 101.7033 deg RA of node: 015.5639 deg Eccentricity: 0.0211449 Arg of perigee: 068.4666 deg Mean anomaly: 355.8515 deg Mean motion: 14.91058027 rev/day Decay rate: 5.107e-05 rev/day^2 Epoch rev: 16057 Checksum: 320 Satellite: AUBIESAT Catalog number: 37854 Epoch time: 14289.15184747 Element set: 935 Inclination: 101.7079 deg RA of node: 018.8717 deg Eccentricity: 0.0208833 Arg of perigee: 062.9514 deg Mean anomaly: 001.2300 deg Mean motion: 14.92573310 rev/day Decay rate: 9.465e-05 rev/day^2 Epoch rev: 16074 Checksum: 304 Satellite: HRBE Catalog number: 37855 Epoch time: 14289.45668714 Element set: 954 Inclination: 101.7078 deg RA of node: 018.4892 deg Eccentricity: 0.0211112 Arg of perigee: 063.7614 deg Mean anomaly: 298.5122 deg Mean motion: 14.91785940 rev/day Decay rate: 4.915e-05 rev/day^2 Epoch rev: 16074 Checksum: 324 Satellite: RS-39 Catalog number: 38051 Epoch time: 14288.65876392 Element set: 41 Inclination: 051.5964 deg RA of node: 324.1908 deg Eccentricity: 0.0006422 Arg of perigee: 269.6897 deg Mean anomaly: 186.8903 deg Mean motion: 16.43533377 rev/day Decay rate: 7.0201582e-01 rev/day^2 Epoch rev: 15308 Checksum: 345 Satellite: E-STAR Catalog number: 38079 Epoch time: 14289.43182810 Element set: 23 Inclination: 069.4421 deg RA of node: 027.4219 deg Eccentricity: 0.0274409 Arg of perigee: 178.6686 deg Mean anomaly: 278.2300 deg Mean motion: 15.34280003 rev/day Decay rate: 1.97024e-03 rev/day^2 Epoch rev: 14186 Checksum: 300 Satellite: GOLIAT Catalog number: 38085 Epoch time: 14289.42155729 Element set: 459 Inclination: 069.4465 deg RA of node: 037.8656 deg Eccentricity: 0.0309622 Arg of perigee: 183.4878 deg Mean anomaly: 176.4141 deg Mean motion: 15.25190658 rev/day Decay rate: 1.79787e-03 rev/day^2 Epoch rev: 14158 Checksum: 361 Satellite: HORYU-2 Catalog number: 38340 Epoch time: 14289.29954314 Element set: 996 Inclination: 098.2794 deg RA of node: 248.6669 deg Eccentricity: 0.0013194 Arg of perigee: 146.0117 deg Mean anomaly: 214.1938 deg Mean motion: 14.72942040 rev/day Decay rate: 2.484e-05 rev/day^2 Epoch rev: 12962 Checksum: 331 Satellite: RS-40 Catalog number: 38735 Epoch time: 14289.30376648 Element set: 713 Inclination: 082.4791 deg RA of node: 212.0189 deg Eccentricity: 0.0017190 Arg of perigee: 355.3448 deg Mean anomaly: 004.7469 deg Mean motion: 12.42561957 rev/day Decay rate: -1.0e-08 rev/day^2 Epoch rev: 10061 Checksum: 300 Satellite: PROITERES Catalog number: 38756 Epoch time: 14289.48055665 Element set: 320 Inclination: 098.2269 deg RA of node: 019.7563 deg Eccentricity: 0.0012063 Arg of perigee: 002.3757 deg Mean anomaly: 357.7507 deg Mean motion: 14.75168880 rev/day Decay rate: 3.01e-06 rev/day^2 Epoch rev: 11305 Checksum: 305 Satellite: BEESAT-3 Catalog number: 39134 Epoch time: 14288.91994346 Element set: 739 Inclination: 064.8739 deg RA of node: 116.0604 deg Eccentricity: 0.0035604 Arg of perigee: 286.6747 deg Mean anomaly: 073.0467 deg Mean motion: 15.06736842 rev/day Decay rate: 4.203e-05 rev/day^2 Epoch rev: 8183 Checksum: 330 Satellite: BEESAT-2 Catalog number: 39136 Epoch time: 14289.57034304 Element set: 724 Inclination: 064.8740 deg RA of node: 114.8900 deg Eccentricity: 0.0035570 Arg of perigee: 286.6562 deg Mean anomaly: 073.1162 deg Mean motion: 15.05935321 rev/day Decay rate: 5.381e-05 rev/day^2 Epoch rev: 8191 Checksum: 293 Satellite: LO-75 Catalog number: 39382 Epoch time: 14289.44613025 Element set: 468 Inclination: 040.4786 deg RA of node: 070.9766 deg Eccentricity: 0.0030591 Arg of perigee: 006.5020 deg Mean anomaly: 353.6204 deg Mean motion: 15.88484781 rev/day Decay rate: 8.15780e-03 rev/day^2 Epoch rev: 5093 Checksum: 329 Satellite: ZACUBE-1 Catalog number: 39417 Epoch time: 14289.13013532 Element set: 440 Inclination: 097.7639 deg RA of node: 355.5453 deg Eccentricity: 0.0061431 Arg of perigee: 209.4669 deg Mean anomaly: 150.3075 deg Mean motion: 14.78483525 rev/day Decay rate: 2.316e-05 rev/day^2 Epoch rev: 4856 Checksum: 309 Satellite: TRITON-1 Catalog number: 39427 Epoch time: 14288.76264274 Element set: 292 Inclination: 097.7518 deg RA of node: 348.5515 deg Eccentricity: 0.0117053 Arg of perigee: 226.1223 deg Mean anomaly: 133.0268 deg Mean motion: 14.65689471 rev/day Decay rate: 5.20e-06 rev/day^2 Epoch rev: 4805 Checksum: 311 Satellite: DELFIN3XT Catalog number: 39428 Epoch time: 14289.12513374 Element set: 296 Inclination: 097.7512 deg RA of node: 347.7603 deg Eccentricity: 0.0126956 Arg of perigee: 228.0920 deg Mean anomaly: 130.9402 deg Mean motion: 14.63781756 rev/day Decay rate: 3.371e-05 rev/day^2 Epoch rev: 4802 Checksum: 312 Satellite: GOMX-1 Catalog number: 39430 Epoch time: 14289.11058879 Element set: 905 Inclination: 097.7453 deg RA of node: 344.5071 deg Eccentricity: 0.0155099 Arg of perigee: 237.5134 deg Mean anomaly: 121.0994 deg Mean motion: 14.57117325 rev/day Decay rate: 1.916e-05 rev/day^2 Epoch rev: 4782 Checksum: 319 Satellite: MO-76 Catalog number: 39436 Epoch time: 14289.14161477 Element set: 375 Inclination: 097.7699 deg RA of node: 001.0380 deg Eccentricity: 0.0024874 Arg of perigee: 206.5069 deg Mean anomaly: 153.4880 deg Mean motion: 14.93127636 rev/day Decay rate: 2.2369e-04 rev/day^2 Epoch rev: 4890 Checksum: 342 Satellite: LO-74 Catalog number: 39440 Epoch time: 14288.75903065 Element set: 287 Inclination: 097.7596 deg RA of node: 352.5569 deg Eccentricity: 0.0083240 Arg of perigee: 216.0111 deg Mean anomaly: 143.5473 deg Mean motion: 14.73398132 rev/day Decay rate: 9.39e-06 rev/day^2 Epoch rev: 4833 Checksum: 330 Satellite: PUCPSAT-1 Catalog number: 39442 Epoch time: 14289.14437232 Element set: 286 Inclination: 097.7696 deg RA of node: 359.6687 deg Eccentricity: 0.0033894 Arg of perigee: 205.6310 deg Mean anomaly: 154.3227 deg Mean motion: 14.86659803 rev/day Decay rate: 4.422e-05 rev/day^2 Epoch rev: 4759 Checksum: 341 Satellite: SHINAISAT Catalog number: 39572 Epoch time: 14289.48296032 Element set: 344 Inclination: 065.0032 deg RA of node: 337.7932 deg Eccentricity: 0.0020291 Arg of perigee: 290.1463 deg Mean anomaly: 069.7516 deg Mean motion: 15.87864434 rev/day Decay rate: 1.31591e-03 rev/day^2 Epoch rev: 3621 Checksum: 306 Satellite: TEIKYOSAT Catalog number: 39576 Epoch time: 14289.46060317 Element set: 407 Inclination: 064.9958 deg RA of node: 331.9730 deg Eccentricity: 0.0017341 Arg of perigee: 299.0673 deg Mean anomaly: 060.8762 deg Mean motion: 16.09302389 rev/day Decay rate: 5.87277e-03 rev/day^2 Epoch rev: 3632 Checksum: 337 Satellite: CO-77 Catalog number: 39577 Epoch time: 14244.78324653 Element set: 379 Inclination: 064.9920 deg RA of node: 123.7668 deg Eccentricity: 0.0014904 Arg of perigee: 269.7208 deg Mean anomaly: 091.1897 deg Mean motion: 16.43552757 rev/day Decay rate: 1.0543803e-01 rev/day^2 Epoch rev: 2938 Checksum: 363 Satellite: SPROUT Catalog number: 39770 Epoch time: 14289.47247451 Element set: 164 Inclination: 097.8760 deg RA of node: 024.7872 deg Eccentricity: 0.0008737 Arg of perigee: 276.2348 deg Mean anomaly: 083.7870 deg Mean motion: 14.82879967 rev/day Decay rate: 4.41e-06 rev/day^2 Epoch rev: 2151 Checksum: 340 Satellite: POPSAT-HIP1 Catalog number: 40028 Epoch time: 14289.68947465 Element set: 366 Inclination: 097.9712 deg RA of node: 184.5507 deg Eccentricity: 0.0012934 Arg of perigee: 259.5632 deg Mean anomaly: 100.4150 deg Mean motion: 14.85471394 rev/day Decay rate: 2.859e-05 rev/day^2 Epoch rev: 1761 Checksum: 324 Satellite: EO-80 Catalog number: 40032 Epoch time: 14289.70785059 Element set: 355 Inclination: 097.9693 deg RA of node: 184.4683 deg Eccentricity: 0.0011045 Arg of perigee: 256.1368 deg Mean anomaly: 103.8609 deg Mean motion: 14.85236953 rev/day Decay rate: 2.948e-05 rev/day^2 Epoch rev: 1762 Checksum: 335 Satellite: VELOX-1 Catalog number: 40057 Epoch time: 14289.76197134 Element set: 352 Inclination: 098.2418 deg RA of node: 358.8049 deg Eccentricity: 0.0010464 Arg of perigee: 301.1824 deg Mean anomaly: 058.8331 deg Mean motion: 14.74330479 rev/day Decay rate: 2.639e-05 rev/day^2 Epoch rev: 1599 Checksum: 315 Satellite: DAURIA DX 1 Catalog number: 40071 Epoch time: 14289.68311191 Element set: 324 Inclination: 098.3899 deg RA of node: 345.7673 deg Eccentricity: 0.0007671 Arg of perigee: 308.4029 deg Mean anomaly: 051.6488 deg Mean motion: 14.79675002 rev/day Decay rate: 1.271e-05 rev/day^2 Epoch rev: 1477 Checksum: 315 Satellite: UKUBE-1 Catalog number: 40074 Epoch time: 14289.75619499 Element set: 326 Inclination: 098.3904 deg RA of node: 346.0046 deg Eccentricity: 0.0004113 Arg of perigee: 325.7768 deg Mean anomaly: 034.3143 deg Mean motion: 14.80709609 rev/day Decay rate: 2.604e-05 rev/day^2 Epoch rev: 1479 Checksum: 308 Satellite: CHASQUI-1 Catalog number: 40117 Epoch time: 14289.68102146 Element set: 200 Inclination: 051.6467 deg RA of node: 216.0403 deg Eccentricity: 0.0004992 Arg of perigee: 169.3428 deg Mean anomaly: 260.9743 deg Mean motion: 15.57917394 rev/day Decay rate: 8.7009e-04 rev/day^2 Epoch rev: 916 Checksum: 300 /EX